KD5UIG Weather Reports


Display with metric or nautical units.
time (UTC)temp
F
wind
direction
speed
MPH
gust
MPH
rain 1hr
in
rain 24hr
in
rain mn
in
humidity
%
barometer
mb
20260903152059 85 90 1.0 6.0 0.00 0.00 0.00 73 1013.7
20260903151613 84 164 1.0 7.0 0.00 0.00 0.00 73 1013.8
20260903151057 84 209 1.0 7.0 0.00 0.00 0.00 73 1013.8
20260903150557 84 150 1.0 7.0 0.00 0.00 0.00 72 1013.8
20260903150104 84 63 1.0 7.0 0.00 0.00 0.00 72 1013.8
20260903145558 84 222 2.0 6.0 0.00 0.00 0.00 73 1013.9
20260903145100 84 107 1.0 6.0 0.00 0.00 0.00 75 1014.0
20260903144613 83 132 2.0 6.0 0.00 0.00 0.00 75 1014.1
20260903144056 83 142 1.0 6.0 0.00 0.00 0.00 76 1014.0
20260903143556 82 215 1.0 6.0 0.00 0.00 0.00 76 1014.1
20260903143114 82 139 2.0 6.0 0.00 0.00 0.00 76 1014.1
20260903142558 82 129 1.0 5.0 0.00 0.00 0.00 77 1014.1
20260903142056 81 0 2.0 7.0 0.00 0.00 0.00 77 1014.0
20260903141606 81 40 1.0 7.0 0.00 0.00 0.00 79 1013.9
20260903141057 81 87 1.0 4.0 0.00 0.00 0.00 80 1013.8
20260903140557 80 135 1.0 4.0 0.00 0.00 0.00 81 1013.8
20260903135556 80 164 1.0 6.0 0.00 0.00 0.00 83 1014.0
20260903135056 79 161 0.0 4.0 0.00 0.00 0.00 85 1013.9
20260903134620 79 0 0.0 4.0 0.00 0.00 0.00 86 1013.8
20260903134056 79 181 1.0 4.0 0.00 0.00 0.00 86 1013.8
20260903133556 78 0 0.0 3.0 0.00 0.00 0.00 87 1013.8
20260903133108 77 0 0.0 3.0 0.00 0.00 0.00 86 1013.8
20260903132556 77 0 1.0 4.0 0.00 0.00 0.00 87 1013.9
20260903132059 76 155 1.0 4.0 0.00 0.00 0.00 87 1013.9
20260903131605 76 172 0.0 3.0 0.00 0.00 0.00 87 1013.9
20260903131054 76 0 0.0 1.0 0.00 0.00 0.00 87 1013.9
20260903130603 75 0 0.0 0.0 0.00 0.00 0.00 87 1013.9
20260903130111 75 0 0.0 1.0 0.00 0.00 0.00 87 1014.0
20260903125556 75 0 0.0 3.0 0.00 0.00 0.00 87 1014.0
20260903125056 75 0 0.0 3.0 0.00 0.00 0.00 87 1013.9
20260903124619 75 175 0.0 2.0 0.00 0.00 0.00 87 1013.9
20260903124057 75 194 0.0 2.0 0.00 0.00 0.00 87 1013.9
20260903123709 75 0 0.0 1.0 0.00 0.00 0.00 87 1013.7
20260903123126 74 0 0.0 1.0 0.00 0.00 0.00 87 1013.6
20260903120554 75 0 0.0 1.0 0.00 0.00 0.00 87 1013.5
20260903120106 75 0 0.0 3.0 0.00 0.00 0.00 87 1013.4
20260903115555 75 0 0.0 3.0 0.00 0.00 0.00 87 1013.4
20260903115055 75 0 0.0 2.0 0.00 0.00 0.00 87 1013.3
20260903114604 75 0 0.0 1.0 0.00 0.00 0.00 87 1013.3
20260903114054 75 0 0.0 0.0 0.00 0.00 0.00 87 1013.3
20260903113558 75 0 0.0 0.0 0.00 0.00 0.00 87 1013.2
20260903113144 75 0 0.0 0.0 0.00 0.00 0.00 87 1013.2
20260903112555 75 0 0.0 2.0 0.00 0.00 0.00 87 1013.2
20260903112055 75 0 0.0 2.0 0.00 0.00 0.00 87 1013.1
20260903111604 75 0 0.0 1.0 0.00 0.00 0.00 87 1013.1
20260903111054 75 0 0.0 1.0 0.00 0.00 0.00 87 1013.3
20260903110555 75 0 0.0 1.0 0.00 0.00 0.00 87 1013.4
20260903110109 75 194 0.0 3.0 0.00 0.00 0.00 88 1013.3
20260903105555 75 0 0.0 3.0 0.00 0.00 0.00 88 1013.2
20260903105054 75 194 0.0 5.0 0.00 0.00 0.00 88 1013.2
20260903104609 75 0 0.0 5.0 0.00 0.00 0.00 88 1013.2
20260903104053 75 194 0.0 4.0 0.00 0.00 0.00 88 1013.2
20260903103554 75 0 0.0 2.0 0.00 0.00 0.00 88 1013.2
20260903103103 75 0 0.0 3.0 0.00 0.00 0.00 88 1013.3
20260903102557 75 126 0.0 3.0 0.00 0.00 0.00 88 1013.4
20260903102056 75 125 0.0 3.0 0.00 0.00 0.00 87 1013.3
20260903101603 75 0 0.0 2.0 0.00 0.00 0.00 87 1013.2
20260903101056 75 124 0.0 2.0 0.00 0.00 0.00 87 1013.3
20260903100557 75 0 0.0 2.0 0.00 0.00 0.00 87 1013.3
20260903100103 75 0 0.0 2.0 0.00 0.00 0.00 87 1013.3
20260903095556 75 0 0.0 1.0 0.00 0.00 0.00 87 1013.3
20260903095056 75 0 0.0 0.0 0.00 0.00 0.00 87 1013.2
20260903094601 75 0 0.0 1.0 0.00 0.00 0.00 87 1013.2
20260903094057 75 0 0.0 1.0 0.00 0.00 0.00 87 1013.2
20260903093558 75 0 0.0 3.0 0.00 0.00 0.00 86 1013.2
20260903093107 75 0 0.0 3.0 0.00 0.00 0.00 86 1013.3
20260903092556 75 0 0.0 3.0 0.00 0.00 0.00 86 1013.2
20260903092056 75 124 0.0 2.0 0.00 0.00 0.00 85 1013.0
20260903091611 75 124 0.0 2.0 0.00 0.00 0.00 85 1013.2
20260903091056 76 0 0.0 2.0 0.00 0.00 0.00 84 1013.2
20260903090556 76 0 0.0 2.0 0.00 0.00 0.00 84 1013.2
20260903090101 76 0 0.0 2.0 0.00 0.00 0.00 84 1013.2
20260903085556 76 0 0.0 2.0 0.00 0.00 0.00 83 1013.1
20260903085056 77 0 0.0 2.0 0.00 0.00 0.00 83 1013.1
20260903084607 77 0 0.0 2.0 0.00 0.00 0.00 82 1013.0
20260903084057 77 121 0.0 2.0 0.00 0.00 0.00 82 1013.0
20260903083557 78 0 0.0 2.0 0.00 0.00 0.00 81 1013.0
20260903083059 78 0 0.0 2.0 0.00 0.00 0.00 81 1013.0
20260903082556 79 121 0.0 2.0 0.00 0.00 0.00 81 1013.0
20260903082056 79 0 0.0 2.0 0.00 0.00 0.00 79 1013.2
20260903081603 79 0 0.0 2.0 0.00 0.00 0.00 77 1013.4
20260903081055 79 0 0.0 1.0 0.00 0.00 0.00 76 1013.3
20260903080557 79 0 0.0 2.0 0.00 0.00 0.00 76 1013.3
20260903080106 79 0 0.0 2.0 0.00 0.00 0.00 75 1013.4
20260903075556 79 0 0.0 2.0 0.00 0.00 0.00 75 1013.3
20260903075056 79 0 0.0 1.0 0.00 0.00 0.00 75 1013.2
20260903074601 79 0 0.0 1.0 0.00 0.00 0.00 74 1013.2
20260903074056 79 0 0.0 1.0 0.00 0.00 0.00 74 1013.2
20260903073556 80 0 0.0 1.0 0.00 0.00 0.00 74 1013.2
20260903073104 80 127 0.0 2.0 0.00 0.00 0.00 73 1013.2
20260903072554 80 0 0.0 2.0 0.00 0.00 0.00 73 1013.2
20260903072055 80 0 0.0 2.0 0.00 0.00 0.00 73 1013.2
20260903071613 80 0 0.0 2.0 0.00 0.00 0.00 72 1013.3
20260903071054 80 127 0.0 2.0 0.00 0.00 0.00 72 1013.3
20260903070554 81 0 0.0 2.0 0.00 0.00 0.00 72 1013.5
20260903070103 81 0 0.0 2.0 0.00 0.00 0.00 72 1013.4
20260903065557 81 0 0.0 3.0 0.00 0.00 0.00 72 1013.4
20260903065054 81 0 0.0 4.0 0.00 0.00 0.00 72 1013.5
20260903064601 81 100 1.0 4.0 0.00 0.00 0.00 72 1013.5
20260903064054 81 0 0.0 3.0 0.00 0.00 0.00 71 1013.5
20260903063554 81 0 0.0 6.0 0.00 0.00 0.00 71 1013.5
20260903063103 82 93 1.0 6.0 0.00 0.00 0.00 71 1013.6
20260903062555 82 0 1.0 8.0 0.00 0.00 0.00 70 1013.6
20260903062057 82 49 2.0 8.0 0.00 0.00 0.00 70 1013.6
20260903061607 82 124 1.0 6.0 0.00 0.00 0.00 69 1013.7
20260903061054 82 97 1.0 7.0 0.00 0.00 0.00 69 1013.8
20260903060557 83 80 1.0 7.0 0.00 0.00 0.00 68 1013.8
20260903060111 83 105 2.0 7.0 0.00 0.00 0.00 68 1013.7
20260903055555 83 107 0.0 7.0 0.00 0.00 0.00 67 1013.7
20260903055054 83 111 1.0 7.0 0.00 0.00 0.00 67 1013.7
20260903054600 83 51 1.0 11.0 0.00 0.00 0.00 66 1013.8
20260903054054 83 98 3.0 11.0 0.00 0.00 0.00 66 1013.8
20260903053554 83 86 2.0 7.0 0.00 0.00 0.00 66 1013.8
20260903053106 84 92 2.0 8.0 0.00 0.00 0.00 66 1013.7
20260903052558 84 101 2.0 8.0 0.00 0.00 0.00 65 1013.7
20260903052055 84 92 1.0 9.0 0.00 0.00 0.00 64 1013.7
20260903051615 84 62 2.0 9.0 0.00 0.00 0.00 64 1013.6
20260903051055 84 85 3.0 9.0 0.00 0.00 0.00 64 1013.6
20260903050554 84 96 2.0 9.0 0.00 0.00 0.00 64 1013.7
20260903050108 84 81 1.0 8.0 0.00 0.00 0.00 63 1013.7
20260903045554 85 104 1.0 7.0 0.00 0.00 0.00 63 1013.7
20260903045054 85 97 2.0 6.0 0.00 0.00 0.00 63 1013.6
20260903044604 85 67 0.0 5.0 0.00 0.00 0.00 62 1013.6
20260903044054 85 90 1.0 7.0 0.00 0.00 0.00 62 1013.5
20260903043555 85 96 2.0 7.0 0.00 0.00 0.00 62 1013.6
20260903043207 85 144 2.0 6.0 0.00 0.00 0.00 61 1013.6
20260903042554 86 0 1.0 6.0 0.00 0.00 0.00 61 1013.6
20260903042054 86 123 2.0 7.0 0.00 0.00 0.00 60 1013.6
20260903041607 86 56 1.0 7.0 0.00 0.00 0.00 60 1013.7
20260903041055 86 119 2.0 9.0 0.00 0.00 0.00 59 1013.7
20260903040554 87 90 2.0 9.0 0.00 0.00 0.00 59 1013.7
20260903035554 88 53 1.0 8.0 0.00 0.00 0.00 59 1013.7
20260903035055 88 94 2.0 8.0 0.00 0.00 0.00 59 1013.5
20260903034602 88 122 1.0 4.0 0.00 0.00 0.00 58 1013.6
20260903034055 88 94 1.0 6.0 0.00 0.00 0.00 57 1013.6
20260903033554 89 96 1.0 6.0 0.00 0.00 0.00 56 1013.5
20260903033104 89 90 2.0 8.0 0.00 0.00 0.00 56 1013.5
20260903032554 89 115 1.0 8.0 0.00 0.00 0.00 55 1013.4
20260903032055 89 108 1.0 8.0 0.00 0.00 0.00 54 1013.5
20260903031603 89 85 2.0 8.0 0.00 0.00 0.00 53 1013.5
20260903031055 90 107 0.0 7.0 0.00 0.00 0.00 53 1013.3
20260903030555 90 88 1.0 8.0 0.00 0.00 0.00 53 1013.3
20260903030103 90 81 1.0 8.0 0.00 0.00 0.00 53 1013.3
20260903025554 90 78 2.0 8.0 0.00 0.00 0.00 53 1013.2
20260903025055 90 78 1.0 9.0 0.00 0.00 0.00 53 1013.1
20260903024607 90 60 2.0 9.0 0.00 0.00 0.00 53 1013.0
20260903024054 90 100 1.0 8.0 0.00 0.00 0.00 53 1013.1
20260903023554 91 78 2.0 6.0 0.00 0.00 0.00 52 1013.1
20260903023104 91 82 1.0 6.0 0.00 0.00 0.00 53 1013.0
20260903022557 91 123 1.0 6.0 0.00 0.00 0.00 53 1012.9
20260903022054 91 94 1.0 6.0 0.00 0.00 0.00 53 1012.8
20260903021603 91 105 1.0 6.0 0.00 0.00 0.00 53 1012.7
20260903021055 91 87 1.0 7.0 0.00 0.00 0.00 52 1012.7
20260903020554 92 0 1.0 9.0 0.00 0.00 0.00 52 1012.5
20260903020106 92 61 2.0 9.0 0.00 0.00 0.00 52 1012.4
20260903015555 92 0 2.0 9.0 0.00 0.00 0.00 52 1012.4
20260903015054 92 116 1.0 8.0 0.00 0.00 0.00 52 1012.2
20260903014604 92 70 3.0 8.0 0.00 0.00 0.00 51 1012.2
20260903014054 92 152 1.0 8.0 0.00 0.00 0.00 51 1012.2
20260903013554 92 144 2.0 5.0 0.00 0.00 0.00 50 1012.2
20260903013109 93 104 1.0 8.0 0.00 0.00 0.00 50 1012.2
20260903012555 93 97 1.0 8.0 0.00 0.00 0.00 50 1012.1
20260903012055 93 0 2.0 7.0 0.00 0.00 0.00 49 1012.1
20260903011605 94 119 1.0 9.0 0.00 0.00 0.00 49 1012.0
20260903011054 94 84 2.0 9.0 0.00 0.00 0.00 48 1012.0
20260903010554 94 77 2.0 8.0 0.00 0.00 0.00 47 1011.9
20260903010108 95 140 2.0 8.0 0.00 0.00 0.00 46 1011.9
20260903005556 95 82 2.0 8.0 0.00 0.00 0.00 44 1011.8
20260903005054 96 73 1.0 7.0 0.00 0.00 0.00 43 1011.7
20260903004607 96 70 2.0 7.0 0.00 0.00 0.00 42 1011.7
20260903004055 97 64 2.0 9.0 0.00 0.00 0.00 42 1011.7
20260903003554 97 66 2.0 9.0 0.00 0.00 0.00 41 1011.7
20260903003103 97 88 3.0 9.0 0.00 0.00 0.00 41 1011.7
20260903002555 98 84 2.0 7.0 0.00 0.00 0.00 40 1011.6
20260903002055 98 59 2.0 6.0 0.00 0.00 0.00 40 1011.7
20260903001603 98 70 1.0 8.0 0.00 0.00 0.00 40 1011.6
20260903001055 98 75 3.0 8.0 0.00 0.00 0.00 39 1011.6
20260903000556 99 136 1.0 8.0 0.00 0.00 0.00 39 1011.5
20260902235555 99 51 3.0 8.0 0.00 0.00 0.00 39 1011.5
20260902235055 99 75 2.0 9.0 0.00 0.00 0.00 39 1011.5
20260902234618 99 156 2.0 9.0 0.00 0.00 0.00 38 1011.6
20260902234055 100 80 3.0 11.0 0.00 0.00 0.00 38 1011.7
20260902233554 100 73 4.0 11.0 0.00 0.00 0.00 37 1011.7
20260902233105 100 68 1.0 9.0 0.00 0.00 0.00 37 1011.7
20260902232554 100 80 3.0 9.0 0.00 0.00 0.00 37 1011.7
20260902232054 101 107 1.0 10.0 0.00 0.00 0.00 38 1011.7
20260902231624 100 65 1.0 10.0 0.00 0.00 0.00 38 1011.5
20260902231055 101 68 4.0 10.0 0.00 0.00 0.00 38 1011.6
20260902230600 101 66 2.0 9.0 0.00 0.00 0.00 37 1011.6
20260902230108 101 69 2.0 9.0 0.00 0.00 0.00 37 1011.5
20260902225555 101 84 3.0 8.0 0.00 0.00 0.00 37 1011.6
20260902225055 101 0 2.0 8.0 0.00 0.00 0.00 37 1011.6
20260902224613 101 86 1.0 10.0 0.00 0.00 0.00 38 1011.7
20260902224054 101 57 2.0 10.0 0.00 0.00 0.00 38 1011.7
20260902223554 101 73 4.0 10.0 0.00 0.00 0.00 38 1011.9
20260902223104 101 86 2.0 8.0 0.00 0.00 0.00 38 1011.8
20260902222553 101 81 4.0 11.0 0.00 0.00 0.00 38 1011.9
20260902222055 101 71 3.0 11.0 0.00 0.00 0.00 38 1011.9
20260902221605 101 72 6.0 11.0 0.00 0.00 0.00 37 1011.8
20260902221055 102 46 2.0 10.0 0.00 0.00 0.00 37 1011.9
20260902220558 102 67 4.0 10.0 0.00 0.00 0.00 36 1011.9
20260902220113 102 61 2.0 8.0 0.00 0.00 0.00 37 1011.9
20260902215557 102 76 1.0 8.0 0.00 0.00 0.00 37 1012.0
20260902215056 102 72 2.0 8.0 0.00 0.00 0.00 37 1012.1
20260902214603 102 79 2.0 8.0 0.00 0.00 0.00 37 1012.1
20260902214056 102 188 1.0 8.0 0.00 0.00 0.00 38 1012.1
20260902213556 101 67 2.0 6.0 0.00 0.00 0.00 37 1012.2
20260902213123 101 159 2.0 9.0 0.00 0.00 0.00 38 1012.3
20260902212558 101 96 2.0 10.0 0.00 0.00 0.00 38 1012.3
20260902212057 101 51 4.0 10.0 0.00 0.00 0.00 38 1012.4
20260902211606 101 58 3.0 11.0 0.00 0.00 0.00 38 1012.3
20260902211056 101 84 2.0 11.0 0.00 0.00 0.00 38 1012.4
20260902210556 101 81 3.0 11.0 0.00 0.00 0.00 38 1012.5
20260902205556 102 67 4.0 9.0 0.00 0.00 0.00 38 1012.7
20260902205056 102 58 3.0 9.0 0.00 0.00 0.00 39 1012.8
20260902204606 102 76 2.0 8.0 0.00 0.00 0.00 39 1012.8
20260902204056 102 67 3.0 8.0 0.00 0.00 0.00 39 1012.8
20260902203601 102 44 1.0 6.0 0.00 0.00 0.00 38 1012.9
20260902203107 101 153 1.0 6.0 0.00 0.00 0.00 38 1013.0
20260902202558 100 76 2.0 10.0 0.00 0.00 0.00 38 1013.2
20260902202057 101 121 2.0 10.0 0.00 0.00 0.00 38 1013.2
20260902201608 102 61 3.0 9.0 0.00 0.00 0.00 38 1013.3
20260902201058 101 61 1.0 7.0 0.00 0.00 0.00 39 1013.4
20260902200558 101 79 2.0 8.0 0.00 0.00 0.00 40 1013.3
20260902200136 101 55 2.0 8.0 0.00 0.00 0.00 39 1013.4
20260902195557 101 76 2.0 6.0 0.00 0.00 0.00 39 1013.5
20260902195057 101 355 2.0 7.0 0.00 0.00 0.00 40 1013.5
20260902194603 101 55 2.0 7.0 0.00 0.00 0.00 41 1013.6
20260902194101 101 63 0.0 9.0 0.00 0.00 0.00 40 1013.7
20260902193559 101 77 1.0 9.0 0.00 0.00 0.00 41 1013.7
20260902193106 100 80 3.0 9.0 0.00 0.00 0.00 41 1013.9
20260902192556 100 78 1.0 6.0 0.00 0.00 0.00 40 1014.0
20260902192057 100 0 2.0 8.0 0.00 0.00 0.00 42 1014.1
20260902191614 99 71 1.0 9.0 0.00 0.00 0.00 43 1014.1
20260902191056 99 50 4.0 9.0 0.00 0.00 0.00 42 1014.2
20260902190556 99 74 3.0 8.0 0.00 0.00 0.00 42 1014.3
20260902190115 99 61 1.0 10.0 0.00 0.00 0.00 43 1014.3
20260902185600 99 60 3.0 10.0 0.00 0.00 0.00 42 1014.5
20260902185453 100 19 2.0 10.0 0.00 0.00 0.00 41 1014.5